STARLINK-38316, 100515

Orbit data source: Space-Track

STARLINK-38316, 100515 is a payload satellite owned by SpaceX/Seattle (US) in LEO that was launched on Wed, 26 Aug 2026 UTC launched from the Air Force Western Test Range (AFWTR). Payload-class satellites include a variety of spacecraft equipped with specific instruments for various scientific and technological missions. These include communications satellites like Starlink; space stations such as the ISS; scientific satellites like the Hubble; Earth observation satellites from companies like Planet Labs, Umbra, and HawkEye 360; GPS; miniature CubeSats for education and research; and military/defense satellites.

Loading next visibility...
Identifier
100515, 2026-197P
Orbit
LEO
Country
Flag of USUS
Related business
Manufacturer
SpaceX/Seattle
Mission
Operational spacecraft
Bus & Motor
STARLINK V2MO, Unknown motor
Mass
575 kg wet, ~530 kg dry
Launch date (UTC)
2026-08-26 (2 weeks ago)
Launch vehicle
Unknown
Launch site
Air Force Western Test Range (AFWTR)
Object type
Payload
Rocket body
Debris
Shape & HBR
BOX + PAN, 17.7 m
Radar Cross Section
RCS unknown

Expand to show TLE details & history
Last TLE update: 13 hours ago

TLE from 13 hours ago
0 STARLINK-38316
1 A0515U 26197P   26251.24181689  .00206956  00000-0  98043-3 0  9996
2 A0515  69.9988 156.6119 0003823 260.9922  99.0847 15.82250950  2058
Epoch: 2026-09-08T05:48Z
TLE epoch observation values (Epoch: 2026-09-08T05:48:12.979Z)
Latitude
-0.00005°
Longitude
82.24676°
Altitude
326.996 km
Speed
7.712 km/s
True Right ascension
10h 26m 26s
True Declination
0° 00' 00"
Sunlit
Object was in daylight at epoch
Visualization orbit readout
Latitude
Unknown
Longitude
Unknown
Altitude
Unknown
Speed
Unknown
Apparent Right ascension
Unknown
Apparent Declination
Unknown
Sunlit
N/A
Visualization observer readout
Local Sidereal Time
10:49:02
Azimuth
Unknown
Elevation
Unknown
Doppler factor
Unknown
Orbital elements
Apogee altitude
324.51 km
Perigee altitude
319.387 km
Semi-major axis
6,700.086 km
Eccentricity
0.00038
Inclination
69.9988°
RAAN
156.6119°
Arg. of periapsis
260.9922°
True anomaly
99.12796°
Mean anomaly
99.0847°
Eccentric anomaly
99.10633°
Mean motion
3.95752 °/min
Orbital period
90.97 mins
BSTAR
0.00098043
Loading maneuver chart data...
Computing Atmospheric mass density...
Loading historical data...
Loading historical data...
Loading historical data...
Loading historical data...
Loading historical data...
Loading historical data...
Loading historical data...

Documentation

Showing up to 5 results
|